IU1DOF-3 Weather Reports


Display with metric or nautical units.
time (UTC)temp
F
wind
direction
speed
MPH
gust
MPH
rain 1hr
in
rain 24hr
in
rain mn
in
humidity
%
barometer
mb
20260906225017 64 306 0.0 0.0 0.00 0.00 0.00 88 1023.3
20260906223954 65 306 1.0 1.0 0.00 0.00 0.00 86 1023.3
20260906222940 65 306 2.0 2.0 0.00 0.00 0.00 86 1023.4
20260906221921 65 306 2.0 2.0 0.00 0.00 0.00 86 1023.3
20260906220858 65 306 1.0 2.0 0.00 0.00 0.00 86 1023.4
20260906215840 65 306 0.0 0.0 0.00 0.00 0.00 87 1023.3
20260906214826 66 306 0.0 1.0 0.00 0.00 0.00 85 1023.3
20260906213801 66 307 1.0 1.0 0.00 0.00 0.00 85 1023.0
20260906212738 66 306 1.0 2.0 0.00 0.00 0.00 84 1023.2
20260906211729 66 306 2.0 2.0 0.00 0.00 0.00 83 1023.3
20260906210721 66 307 1.0 2.0 0.00 0.00 0.00 83 1023.3
20260906205713 66 307 2.0 2.0 0.00 0.00 0.00 84 1023.4
20260906204650 66 306 2.0 2.0 0.00 0.00 0.00 83 1023.2
20260906203641 66 306 0.0 0.0 0.00 0.00 0.00 84 1023.2
20260906202618 67 306 0.0 1.0 0.00 0.00 0.00 83 1023.1
20260906201608 67 306 2.0 2.0 0.00 0.00 0.00 84 1023.0
20260906200601 67 307 1.0 2.0 0.00 0.00 0.00 82 1023.2
20260906195540 67 307 2.0 2.0 0.00 0.00 0.00 82 1023.1
20260906194530 68 306 1.0 1.0 0.00 0.00 0.00 82 1023.1
20260906193506 68 307 1.0 2.0 0.00 0.00 0.00 81 1023.1
20260906192442 68 306 2.0 3.0 0.00 0.00 0.00 81 1022.9
20260906191418 68 293 2.0 2.0 0.00 0.00 0.00 80 1022.8
20260906190354 68 292 1.0 2.0 0.00 0.00 0.00 80 1022.7
20260906185340 69 293 2.0 2.0 0.00 0.00 0.00 79 1022.4
20260906184322 69 295 3.0 3.0 0.00 0.00 0.00 79 1022.4
20260906183257 70 306 1.0 2.0 0.00 0.00 0.00 79 1022.1
20260906182240 70 302 1.0 2.0 0.00 0.00 0.00 79 1022.1
20260906181225 70 305 2.0 2.0 0.00 0.00 0.00 77 1022.0
20260906180202 70 306 1.0 1.0 0.00 0.00 0.00 80 1021.8
20260906175140 71 306 2.0 3.0 0.00 0.00 0.00 78 1021.9
20260906174130 71 307 3.0 3.0 0.00 0.00 0.00 78 1021.6
20260906173106 72 307 3.0 4.0 0.00 0.00 0.00 78 1021.5
20260906172042 73 307 3.0 3.0 0.00 0.00 0.00 77 1021.4
20260906171018 73 308 3.0 3.0 0.00 0.00 0.00 76 1021.6
20260906165953 74 308 3.0 3.0 0.00 0.00 0.00 76 1021.6
20260906164940 75 296 2.0 2.0 0.00 0.00 0.00 75 1021.4
20260906163921 76 308 2.0 3.0 0.00 0.00 0.00 74 1021.5
20260906162858 76 296 2.0 2.0 0.00 0.00 0.00 74 1021.5
20260906161840 77 283 1.0 2.0 0.00 0.00 0.00 68 1021.4
20260906160825 78 294 2.0 2.0 0.00 0.00 0.00 67 1021.3
20260906155801 80 312 1.0 2.0 0.00 0.00 0.00 64 1021.2
20260906154740 81 308 0.0 1.0 0.00 0.00 0.00 63 1021.4
20260906153729 82 288 0.0 0.0 0.00 0.00 0.00 59 1021.4
20260906152705 83 310 0.0 1.0 0.00 0.00 0.00 54 1021.4
20260906151642 83 289 0.0 0.0 0.00 0.00 0.00 57 1021.4
20260906150622 82 284 0.0 3.0 0.00 0.00 0.00 56 1021.2
20260906145553 82 261 2.0 3.0 0.00 0.00 0.00 54 1021.3
20260906144541 83 334 1.0 2.0 0.00 0.00 0.00 55 1021.5
20260906143522 83 304 0.0 0.0 0.00 0.00 0.00 56 1021.2
20260906142457 83 259 1.0 3.0 0.00 0.00 0.00 56 1021.6
20260906141440 83 287 0.0 1.0 0.00 0.00 0.00 54 1021.4
20260906140425 83 260 2.0 4.0 0.00 0.00 0.00 54 1021.3
20260906135401 84 285 0.0 0.0 0.00 0.00 0.00 55 1021.4
20260906134338 84 306 2.0 4.0 0.00 0.00 0.00 53 1021.4
20260906133313 83 315 0.0 2.0 0.00 0.00 0.00 54 1021.2
20260906132250 83 275 0.0 0.0 0.00 0.00 0.00 54 1021.2
20260906131240 84 310 0.0 1.0 0.00 0.00 0.00 55 1021.4
20260906130218 84 263 0.0 1.0 0.00 0.00 0.00 56 1021.6
20260906125154 83 250 2.0 3.0 0.00 0.00 0.00 55 1021.8
20260906124140 84 291 0.0 0.0 0.00 0.00 0.00 56 1021.7
20260906123122 83 300 1.0 2.0 0.00 0.00 0.00 57 1021.9
20260906122057 83 327 1.0 2.0 0.00 0.00 0.00 57 1021.9
20260906121041 82 288 1.0 2.0 0.00 0.00 0.00 58 1021.8
20260906120026 83 276 1.0 2.0 0.00 0.00 0.00 56 1021.6
20260906115001 83 285 1.0 2.0 0.00 0.00 0.00 55 1021.8
20260906113937 82 253 2.0 4.0 0.00 0.00 0.00 56 1021.8
20260906112913 81 275 1.0 2.0 0.00 0.00 0.00 56 1021.7
20260906111850 81 272 0.0 1.0 0.00 0.00 0.00 54 1021.9
20260906110840 82 281 0.0 1.0 0.00 0.00 0.00 55 1021.9
20260906105818 82 246 2.0 3.0 0.00 0.00 0.00 54 1022.0
20260906104754 82 255 6.0 9.0 0.00 0.00 0.00 52 1022.0
20260906103741 82 308 1.0 1.0 0.00 0.00 0.00 55 1021.6
20260906102722 81 276 1.0 2.0 0.00 0.00 0.00 57 1021.9
20260906101658 81 157 4.0 6.0 0.00 0.00 0.00 53 1022.1
20260906100640 80 285 0.0 2.0 0.00 0.00 0.00 58 1022.2
20260906095626 80 218 2.0 5.0 0.00 0.00 0.00 55 1022.2
20260906094603 79 245 5.0 8.0 0.00 0.00 0.00 56 1022.4
20260906093538 79 259 3.0 4.0 0.00 0.00 0.00 55 1022.1
20260906092516 78 272 0.0 2.0 0.00 0.00 0.00 56 1022.3
20260906091450 78 261 3.0 4.0 0.00 0.00 0.00 56 1022.4
20260906090442 79 238 3.0 4.0 0.00 0.00 0.00 54 1022.2
20260906085433 79 240 1.0 2.0 0.00 0.00 0.00 56 1022.4
20260906084426 77 274 0.0 0.0 0.00 0.00 0.00 61 1022.4
20260906083418 78 280 1.0 1.0 0.00 0.00 0.00 56 1022.4
20260906082409 77 280 1.0 2.0 0.00 0.00 0.00 58 1022.4
20260906081402 77 207 0.0 1.0 0.00 0.00 0.00 59 1022.2
20260906080354 74 283 0.0 0.0 0.00 0.00 0.00 65 1022.2
20260906075340 73 283 0.0 1.0 0.00 0.00 0.00 70 1022.3
20260906074322 73 283 0.0 0.0 0.00 0.00 0.00 69 1022.4
20260906073314 72 283 0.0 0.0 0.00 0.00 0.00 68 1022.3
20260906072251 73 284 0.0 0.0 0.00 0.00 0.00 69 1022.4
20260906071240 72 284 0.0 0.0 0.00 0.00 0.00 69 1022.2
20260906070219 72 295 0.0 0.0 0.00 0.00 0.00 68 1022.3
20260906065154 70 295 0.0 0.0 0.00 0.00 0.00 75 1022.4
20260906064141 68 295 0.0 0.0 0.00 0.00 0.00 76 1022.3
20260906063122 69 296 0.0 0.0 0.00 0.00 0.00 73 1022.2
20260906062059 68 296 0.0 0.0 0.00 0.00 0.00 72 1022.2
20260906061040 64 296 0.0 0.0 0.00 0.00 0.00 83 1022.1
20260906060026 63 297 1.0 1.0 0.00 0.00 0.00 83 1021.9
20260906055003 63 297 0.0 1.0 0.00 0.00 0.00 83 1021.9
20260906053941 62 297 1.0 2.0 0.00 0.00 0.00 83 1021.8
20260906052930 61 300 0.0 0.0 0.00 0.00 0.00 83 1021.7
20260906051906 61 300 0.0 0.0 0.00 0.00 0.00 84 1021.4
20260906050844 62 300 1.0 2.0 0.00 0.00 0.00 82 1021.3
20260906045818 61 300 2.0 2.0 0.00 0.00 0.00 85 1021.3
20260906044756 61 295 1.0 1.0 0.00 0.00 0.00 85 1021.4
20260906043741 62 300 1.0 1.0 0.00 0.00 0.00 84 1021.1
20260906042723 62 300 0.0 0.0 0.00 0.00 0.00 83 1021.1
20260906041658 62 300 0.0 0.0 0.00 0.00 0.00 85 1021.1
20260906040634 62 300 1.0 2.0 0.00 0.00 0.00 84 1021.2
20260906035626 62 295 0.0 0.0 0.00 0.00 0.00 83 1020.9
20260906034618 63 300 2.0 2.0 0.00 0.00 0.00 82 1020.6
20260906033556 61 300 1.0 1.0 0.00 0.00 0.00 87 1020.8
20260906032541 62 300 0.0 1.0 0.00 0.00 0.00 84 1020.6
20260906031522 63 298 1.0 1.0 0.00 0.00 0.00 83 1020.6
20260906030458 62 298 1.0 1.0 0.00 0.00 0.00 86 1020.7
20260906025440 63 301 1.0 2.0 0.00 0.00 0.00 82 1020.5
20260906024426 62 301 1.0 1.0 0.00 0.00 0.00 84 1020.3
20260906023402 63 301 1.0 2.0 0.00 0.00 0.00 81 1020.5
20260906022339 62 301 1.0 2.0 0.00 0.00 0.00 79 1020.4
20260906021315 62 300 0.0 0.0 0.00 0.00 0.00 82 1020.2
20260906020249 63 302 0.0 0.0 0.00 0.00 0.00 82 1020.4
20260906015241 63 301 1.0 1.0 0.00 0.00 0.00 77 1020.4
20260906014219 63 302 1.0 1.0 0.00 0.00 0.00 82 1020.2
20260906013154 63 301 2.0 2.0 0.00 0.00 0.00 80 1020.2
20260906012141 64 302 1.0 2.0 0.00 0.00 0.00 79 1020.2
20260906011122 63 301 0.0 0.0 0.00 0.00 0.00 80 1020.2
20260906010059 63 301 2.0 3.0 0.00 0.00 0.00 80 1020.1
20260906005040 63 304 0.0 0.0 0.00 0.00 0.00 81 1020.3
20260906004027 63 302 0.0 1.0 0.00 0.00 0.00 78 1020.1
20260906003002 64 300 1.0 2.0 0.00 0.00 0.00 78 1020.3
20260906001942 64 302 1.0 2.0 0.00 0.00 0.00 77 1020.4
20260906000931 64 301 2.0 2.0 0.00 0.00 0.00 79 1020.3
20260905235906 64 301 2.0 2.0 0.00 0.00 0.00 78 1020.3
20260905234842 64 301 0.0 0.0 0.00 0.00 0.00 78 1020.5
20260905233819 65 304 1.0 1.0 0.00 0.00 0.00 75 1020.3
20260905232754 65 304 1.0 2.0 0.00 0.00 0.00 72 1020.4
20260905231742 65 301 1.0 2.0 0.00 0.00 0.00 78 1020.2
20260905230722 65 305 2.0 2.0 0.00 0.00 0.00 75 1020.0
20260905225659 65 302 2.0 2.0 0.00 0.00 0.00 75 1020.2